Regional Weather Roundup
Issued by NWS Sioux Falls, SD

Home | Current Version | Previous Version | Text Only | Print | Product List | Glossary On
Versions: 1 2 3 4 5 6 7 8 9 10 11 12 13 14 15 16 17 18 19 20 21 22 23 24 25 26 27 28 29 30 31 32 33 34 35 36 37 38 39 40 41 42 43 44 45 46 47 48 49 50
000
ASUS43 KFSD 050902
RWRFSD

WEATHER ROUNDUP FOR SE SOUTH DAKOTA/SW MINNESOTA/NW IOWA
NATIONAL WEATHER SERVICE SIOUX FALLS SD
400 AM CDT SUN JUL 05 2015

NOTE: "FAIR" INDICATES FEW OR NO CLOUDS BELOW 12,000 FEET WITH NO
SIGNIFICANT WEATHER AND OR OBSTRUCTIONS TO VISIBILITY.


SDZ038>040-050-052>070-051000-
SOUTHEAST SOUTH DAKOTA

CITY           SKY/WX    TMP DP  RH WIND       PRES   REMARKS
BROOKINGS      CLOUDY    68  61  77 S12G17    29.87R
CHAMBERLAIN    CLEAR     72  66  82 S8        29.73F
HURON          MOCLDY    71  65  81 SE16      29.77S
MADISON        FAIR      68  66  94 S13       29.85S
MITCHELL       MOCLDY    72  65  78 S17       29.76F
SIOUX FALLS    CLOUDY    69  62  78 S14G24    29.84F
WINNER         FAIR      76  62  62 S7        29.74F
YANKTON        PTCLDY    70  63  78 S14       29.81F
$$

MNZ071-072-080-081-089-090-097-098-051000-
SOUTHWEST MINNESOTA

CITY           SKY/WX    TMP DP  RH WIND       PRES   REMARKS
FAIRMONT       PTCLDY    63  55  77 S9        29.92S
JACKSON        PTCLDY    64  59  82 S8        29.91F
MARSHALL       MOCLDY    70  59  68 S12       29.82F
MONTEVIDEO     MOCLDY    66  63  88 S7        29.85S
PIPESTONE      CLOUDY    66  61  82 S12       29.87S
REDWOOD FALLS  PTCLDY    64  60  87 SE9       29.87F
TRACY          PTCLDY    68  62  80 S12       29.85F
WINDOM         PTCLDY    66  61  82 CALM      29.90F
WORTHINGTON    MOCLDY    66  57  72 S15G21    29.89F
$$

IAZ001>003-012>014-020>022-031-032-NEZ013-014-SDZ071-051000-
NORTHWEST IOWA

CITY           SKY/WX    TMP DP  RH WIND       PRES   REMARKS
DENISON        PTCLDY    66  61  82 S9        29.92F
ESTHERVILLE    PTCLDY    61  59  93 S8        29.92F
SIOUX CITY     PTCLDY    68  61  78 SE9       29.89F
SPENCER        MOCLDY    63  58  83 S9        29.91F
$$

ABBREVIATIONS USED IN REMARKS
   TC - TEMPERATURE IN CELSIUS
  WCI - WIND CHILL INDEX
   HX - HEAT INDEX
  VSB - VISIBILITY




USA.gov is the U.S. government's official web portal to all federal, state and local government web resources and services.